Погода в Ченнае

Индия     13°03′50″N   80°08′41″E
темп.,
°C
ветер,
м/с
пор.,
м/с
влажн.,
%
обл.,
%
осадки,
мм/ч
давл.,
гПа
погр.,
м
26 февраля, пт
пт2623:30+25вюв346949 0.0 1012262
02:30+25ю23700 0.0 1009223
05:30+23зюз45800 0.0 1009192
08:30+25зюз45700 0.0 1012307
11:30+29ю44490 0.0 1011658
14:30+30юв53520 0.0 1008687
17:30+28юв66650 0.0 1008249
20:30+26юв56710 0.0 1010212
27 февраля, сб
сб2723:30+26юв45720 0.0 1010236
02:30+25юз34750 0.0 1007233
05:30+23юз45790 0.0 1007198
08:30+25ююз56690 0.0 1010338
11:30+30ю56470 0.0 1010697
14:30+30ююв65490 0.0 1007784
17:30+28юв66640 0.0 1006257
20:30+27юв46720 0.0 1009207
28 февраля, вс
вс2823:30+26юв46760 0.0 1009254
02:30+25ююз45800 0.0 1007282
05:30+23юз45840 0.0 1007272
08:30+25юз56770 0.0 1010360
11:30+29ююв55550 0.0 1010741
14:30+29ююв66560 0.0 1007599
17:30+28ююв56630 0.0 1007443
20:30+26юв57700 0.0 1011362
1 марта, пн
пн123:30+26ююв56720 0.0 1011339
02:30+25ююз45750 0.0 1009342
05:30+23зюз34810 0.0 1009211
08:30+25юз45730 0.0 1012330
11:30+29ююв44520 0.0 1013824
14:30+29ююв66540 0.0 1010678
17:30+28ююв56620 0.0 1010483
20:30+26ююв34700 0.0 1012289
2 марта, вт
вт223:30+26юв45710 0.0 1013363
02:30+25ю34750 0.0 1010390
05:30+24ююз34770 0.0 1011348
08:30+26ююз35690 0.0 1013511
11:30+29юв445126 0.0 1014826
14:30+29юв544990 0.0 1010656
17:30+28юв555845 0.0 1010489
20:30+26юв45640 0.0 1013423